STARLINK-3397, 51115

Orbit data source: Space-Track

STARLINK-3397, 51115 is a payload satellite owned by SpaceX/Seattle (US) in LEO that was launched on Wed, 19 Jan 2022 UTC via an FALCON 9 launch vehicle from the Air Force Eastern Test Range (AFETR). Payload-class satellites include a variety of spacecraft equipped with specific instruments for various scientific and technological missions. These include communications satellites like Starlink; space stations such as the ISS; scientific satellites like the Hubble; Earth observation satellites from companies like Planet Labs, Umbra, and HawkEye 360; GPS; miniature CubeSats for education and research; and military/defense satellites.

Loading next visibility...
Identifier
51115, 2022-005M
Orbit
LEO
Country
Flag of USUS
Related business
Manufacturer
SpaceX/Seattle
Mission
Operational Commercial Communications
Bus & Motor
STARLINK, Unknown motor
Mass
297 kg wet, ~275 kg dry
Launch date (UTC)
2022-01-19 (4 years ago)
Launch vehicle
FALCON 9
Launch site
Air Force Eastern Test Range (AFETR)
Object type
Payload
Rocket body
Debris
Shape & HBR
Box + 1 Pan, 10.1 m
Radar Cross Section
13.562 m², Large (>1 m²)

Expand to show TLE details & history
Last TLE update: 9 hours ago

TLE from 9 hours ago
0 STARLINK-3397
1 51115U 22005M   26094.24931284  .00000241  00000-0  33213-4 0  9999
2 51115  53.2152 174.3783 0001215  88.9367 271.1765 15.08839333232735
Epoch: 2026-04-04T05:59Z
TLE epoch observation values (Epoch: 2026-04-04T05:59:00.629Z)
Latitude
0.00004°
Longitude
-107.94609°
Altitude
540.625 km
Speed
7.593 km/s
True Right ascension
11h 37m 30s
True Declination
0° 00' 00"
Sunlit
Object was in full shadow at epoch
Visualization orbit readout
Latitude
Unknown
Longitude
Unknown
Altitude
Unknown
Speed
Unknown
Apparent Right ascension
Unknown
Apparent Declination
Unknown
Sunlit
N/A
Visualization observer readout
Local Sidereal Time
20:40:55
Azimuth
Unknown
Elevation
Unknown
Doppler factor
Unknown
Orbital elements
Apogee altitude
540.831 km
Perigee altitude
539.15 km
Semi-major axis
6,918.128 km
Eccentricity
0.00012
Inclination
53.2152°
RAAN
174.3783°
Arg. of periapsis
88.9367°
True anomaly
271.16258°
Mean anomaly
271.1765°
Eccentric anomaly
271.16954°
Mean motion
3.7719 °/min
Orbital period
95.44 mins
BSTAR
0.000033213
Loading maneuver chart data...
Computing Atmospheric mass density...
Loading historical data...
Loading historical data...
Loading historical data...
Loading historical data...
Loading historical data...
Loading historical data...
Loading historical data...

Documentation

Showing up to 5 results
|